Simultaneous Nadir Overpasses (SNOs) Predictions

Prediction of SNOs between GOES-17 and AQUA Satellite Orbit:

Table of predicted SNOs for the next 14.0 days since TLE Epoch: 12/9/2023
Index Date Time (GOES-17) GOES-17 Lat,Lon AQUA Lat,Lon Distance(km) Time Diff (sec)
1 12/10/2023 20:57:40 -0.00,-104.66 0.04,-104.52 16.01 80
2 12/12/2023 20:42:30 -0.01,-104.66 0.84,-100.82 437.43 80
3 12/13/2023 09:02:59 0.01,-104.69 0.24,-105.77 123.58 80
4 12/15/2023 08:45:08 0.01,-104.68 -0.53,-102.06 297.67 80
5 12/15/2023 21:05:46 -0.02,-104.65 -0.51,-107.06 273.63 80
6 12/17/2023 20:53:14 -0.01,-104.65 0.24,-103.34 147.95 80
7 12/18/2023 09:13:44 0.01,-104.68 0.77,-108.31 412.65 80
8 12/20/2023 08:55:52 0.00,-104.68 -0.01,-104.60 9.36 80
9 12/22/2023 08:40:40 0.01,-104.68 -0.81,-100.89 431.93 80
10 12/22/2023 21:01:17 -0.01,-104.65 -0.25,-105.88 139.12 80
